Weather History for Worland, WY

Change the Weather History Date:

Tuesday, November 13, 2012

  Actual Average Record
Temperature  
Mean Temperature 21 °F 32 °F  
Max Temperature 31 °F 46 °F 70 °F (1999)
Min Temperature 11 °F 19 °F -10 °F (1978)
Degree Days  
Heating Degree Days 44 33  
Month to date heating degree days 412 382  
Since 1 July heating degree days 1118 1244  
Cooling Degree Days 0 0  
Month to date cooling degree days 0 0  
Year to date cooling degree days 901 535  
Moisture  
Dew Point 16 °F    
Average Humidity 84    
Maximum Humidity 92    
Minimum Humidity 75    
Precipitation  
Precipitation 0.00 in 0.02 in 0.27 in (1991)
Month to date precipitation 0.50 0.17  
Year to date precipitation 2.55 7.16  
Sea Level Pressure  
Sea Level Pressure 30.39 in    
Wind  
Wind Speed 4 mph (South)    
Max Wind Speed 9 mph    
Max Gust Speed 17 mph    
Visibility 10 miles    
Events      
T = Trace of Precipitation, MM = Missing Value Source: NWS Daily Summary

Daily Weather History Graph

Daily Weather History Graph

Search for Another Location

Airport:

Trip Planner

Search our weather history database for the weather conditions in past years. The results will help you decide how hot, cold, wet, or windy it might be!

Date:

Astronomy

Nov. 13, 2012 Rise Set
Actual Time 7:04 AM MST 4:47 PM MST
Civil Twilight 6:33 AM MST 5:18 PM MST
Nautical Twilight 5:58 AM MST 5:52 PM MST
Astronomical Twilight 5:24 AM MST 6:26 PM MST
Moon 6:47 AM MST (11/13) 4:41 PM MST (11/13)
Length of Visible Light 10h 44m
Length of Day
9h 42m
Waning Crescent, 0% of the Moon is Illuminated
Nov 13
Waning Crescent
Nov 13
New
Nov 20
First Quarter
Nov 28
Full
Dec 6
Last Quarter

Hourly Weather History & Observations

Time (MST) Temp. Windchill Dew Point Humidity Pressure Visibility Wind Dir Wind Speed Gust Speed Precip Events Conditions
12:53 AM 17.1 °F 11.7 °F 12.9 °F 84% 30.39 in 10.0 mi South 3.5 mph - N/A   Partly Cloudy
1:53 AM 15.1 °F - 12.0 °F 88% 30.39 in 10.0 mi Calm Calm - N/A   Partly Cloudy
2:53 AM 17.1 °F 11.7 °F 12.9 °F 84% 30.39 in 10.0 mi SSE 3.5 mph - N/A   Partly Cloudy
3:53 AM 18.0 °F 7.7 °F 14.0 °F 84% 30.39 in 10.0 mi SSE 8.1 mph - N/A   Clear
5:53 AM 12.0 °F -0.4 °F 9.0 °F 88% 30.45 in 10.0 mi South 9.2 mph - N/A   Clear
6:53 AM 19.0 °F 10.0 °F 14.0 °F 81% 30.44 in 10.0 mi SSE 6.9 mph - N/A   Clear
7:53 AM 15.1 °F - 12.0 °F 88% 30.47 in 10.0 mi Calm Calm - N/A   Clear
8:53 AM 18.0 °F - 14.0 °F 84% 30.44 in 10.0 mi Calm Calm - N/A   Clear
9:53 AM 18.0 °F - 14.0 °F 84% 30.44 in 10.0 mi Calm Calm - N/A   Clear
10:53 AM 23.0 °F - 17.1 °F 78% 30.42 in 10.0 mi Calm Calm - N/A   Clear
11:53 AM 26.1 °F 21.9 °F 19.9 °F 78% 30.39 in 10.0 mi WSW 3.5 mph - N/A   Clear
12:53 PM 28.9 °F - 21.9 °F 75% 30.37 in 10.0 mi Calm Calm - N/A   Clear
1:53 PM 28.9 °F - 23.0 °F 78% 30.37 in 10.0 mi Calm Calm - N/A   Clear
2:53 PM 28.0 °F 21.7 °F 24.1 °F 85% 30.35 in 10.0 mi South 5.8 mph - N/A   Clear
3:53 PM 26.1 °F 17.6 °F 23.0 °F 88% 30.36 in 10.0 mi South 8.1 mph - N/A   Clear
4:53 PM 25.0 °F 17.1 °F 19.9 °F 81% 30.36 in 10.0 mi South 6.9 mph - N/A   Clear
5:53 PM 19.9 °F 11.1 °F 17.1 °F 89% 30.39 in 10.0 mi South 6.9 mph - N/A   Clear
6:53 PM 17.1 °F 10.0 °F 14.0 °F 88% 30.38 in 10.0 mi South 4.6 mph - N/A   Clear
7:53 PM 19.9 °F - 18.0 °F 92% 30.38 in 10.0 mi Calm Calm - N/A   Clear
8:53 PM 16.0 °F - 14.0 °F 92% 30.39 in 10.0 mi Calm Calm - N/A   Clear
9:53 PM 17.1 °F 5.8 °F 14.0 °F 88% 30.36 in 10.0 mi SW 9.2 mph - N/A   Clear
10:53 PM 19.0 °F 13.9 °F 16.0 °F 88% 30.33 in 10.0 mi South 3.5 mph - N/A   Clear
11:53 PM 16.0 °F 6.3 °F 15.1 °F 96% 30.33 in 9.0 mi SSW 6.9 mph - N/A   Clear